Location: Dos Palmas
(32.4468°N, 116.8732°W)
Time: 13:19:01
(UTC+00:00)

BREEZE-M DEB (TANK) - Pass Details

Date: 20 June 2021
Orbit: 373 x 20280 km, 49.3° (Epoch: 30 July)

Event Time Altitude Azimuth Distance (km) Brightness Sun altitude
Rises 10:25:46 0° 309° (NW) 8,563 8.9 -22.8°
Reaches altitude 10° 10:33:57 10° 309° (NW) 5,238 7.7 -21.7°
Maximum altitude 10:44:14 76° 226° (SW) 827 3.4 -20.2°
Drops below altitude 10° 10:47:25 10° 140° (SE) 1,699 5.2 -19.8°
Sets 10:48:46 0° 138° (SE) 2,368 6.0 -19.6°
